Location: Fairhaven
(34.9340°N, 89.7987°W)
Time: 02:41:55
(UTC+00:00)

Aureole 1 Rocket - Pass Details

Date: 13 February 2026
Orbit: 373 x 1158 km, 73.9° (Epoch: 6 March)

Event Time Altitude Azimuth Distance (km) Brightness Sun altitude
Rises 12:12:17 0° 208° (SSW) 4,014 7.0 -7.8°
Reaches altitude 10° 12:15:05 10° 212° (SSW) 3,060 6.4 -7.2°
Maximum altitude 12:22:20 58° 290° (WNW) 1,291 4.4 -5.7°
Drops below altitude 10° 12:28:59 10° 8° (N) 2,814 6.4 -4.4°
Sets 12:31:29 0° 13° (NNE) 3,673 7.0 -3.9°
